This is the latest recevied weather packets stored in our database for station/object KC3VCX. If no packets are shown the sender has not sent any weather packets the latest 10 day(s).
| Time | Temp. | Humidity | Pressure | Rain* | Wind** | Luminosity | Snow |
|---|---|---|---|---|---|---|---|
| 1777639749 | 6.11° C | 85% | 1015.6 hPa | 0 mm | - | 201 W/m² | - |
| 1777639448 | 6.11° C | 87% | 1015.6 hPa | 0 mm | - | 182 W/m² | - |
| 1777639144 | 6.11° C | 87% | 1015.7 hPa | 0 mm | - | 179 W/m² | - |
| 1777638841 | 6.11° C | 87% | 1015.7 hPa | 0 mm | - | 165 W/m² | - |
| 1777638536 | 6.11° C | 88% | 1015.7 hPa | 0 mm | - | 154 W/m² | - |
| 1777638233 | 5.56° C | 88% | 1015.9 hPa | 0 mm | - | 145 W/m² | - |
| 1777637929 | 5.56° C | 88% | 1015.8 hPa | 0 mm | - | 117 W/m² | - |
| 1777637625 | 5° C | 89% | 1015.8 hPa | 0 mm | - | 85 W/m² | - |
| 1777637323 | 5.56° C | 90% | 1015.5 hPa | 0 mm | - | 100 W/m² | - |
| 1777637020 | 5° C | 91% | 1015.6 hPa | 0 mm | - | 102 W/m² | - |
| 1777636715 | 4.44° C | 92% | 1015.6 hPa | 0 mm | - | 83 W/m² | - |
| 1777636412 | 4.44° C | 93% | 1015.5 hPa | 0 mm | - | 72 W/m² | - |
| 1777636107 | 4.44° C | 93% | 1015.7 hPa | 0 mm | - | 66 W/m² | - |
| 1777635802 | 4.44° C | 94% | 1015.6 hPa | 0 mm | - | 62 W/m² | - |
| 1777635494 | 3.89° C | 94% | 1015.6 hPa | 0 mm | - | 55 W/m² | - |
| 1777635190 | 3.89° C | 94% | 1015.7 hPa | 0 mm | - | 37 W/m² | - |
| 1777634887 | 3.33° C | 94% | 1015.8 hPa | 0 mm | - | 39 W/m² | - |
| 1777634584 | 3.89° C | 94% | 1015.8 hPa | 0 mm | - | 32 W/m² | - |
| 1777634281 | 3.89° C | 94% | 1015.8 hPa | 0 mm | - | 47 W/m² | - |
| 1777633977 | 3.33° C | 94% | 1015.7 hPa | 0 mm | - | 59 W/m² | - |
| 1777633674 | 2.78° C | 94% | 1016 hPa | 0 mm | - | 54 W/m² | - |
| 1777633373 | 2.78° C | 94% | 1016 hPa | 0 mm | - | 29 W/m² | - |
| 1777633070 | 2.78° C | 94% | 1015.8 hPa | 0 mm | - | 24 W/m² | - |
| 1777632766 | 2.78° C | 94% | 1015.9 hPa | 0 mm | - | 20 W/m² | - |
| 1777632462 | 2.78° C | 94% | 1015.9 hPa | 0 mm | - | 19 W/m² | - |
* Rain latest hour (hover to see other rain measurements)
** Current wind speed in m/s (hover to see current wind gust speed)